www.pogodaiklimat.ru

Погода и климат >> Архив погоды >> Антарктида >> SANAE


ПОГОДА в SANAE

  • Прогноз погоды в SANAE
  • Монитор погоды в SANAE
  • Климат города

АРХИВ ПОГОДЫ в SANAE

Время (UTC), дата Ветер
(напр.,м/с)
 
Видим.   Явления Облачность Т
(С)
Тd
(С)
f
(%)
Тe
(С)
Тes
(С)
Комфортность P
(гПа)
Po
(гПа)
Тmin
(С)
Tmax
(С)
R
(мм)
R24
(мм)
S
(см)
12 15.09 В 17 <100 м слабый снег 10/0 300 м
[As op]
-19.2 991.2 885.2 -22.9 -18.7
15 15.09 В 21 н/о н/о -21.5 989.9 883.1 -21.5 -18.7
18 15.09 В 23 <100 м сильный снег 10/0 300 м
[As op]
-20.5 985.9 879.9 -21.9 -18.7
21 15.09 В 24 н/о н/о -19.3 986.0 880.5 -21.9 -18.7
00 16.09 В 23 н/о н/о -19.9 987.0 881.1 -21.9 -18.7
03 16.09 В 21 н/о н/о -20.3 986.2 880.3 -21.9 -18.7
06 16.09 В 19 30 км слабый снег 9/3 300 м
[Sc As op]
-21.3 986.1 879.8 -21.9
09 16.09 В 21 н/о н/о -22.4 985.0 878.4 -22.5 -21.1
12 16.09 В 21 100 м слабый снег 9/0 300 м
[As op]
-22.0 984.5 878.1 -22.8 -21.1
15 16.09 В 21 н/о н/о -21.4 983.1 877.1 -22.2 -21.1
18 16.09 В 20 <100 м снег 10/0 300 м
[As op]
-21.2 982.1 876.3 -22.2 -21.0
21 16.09 В 14 н/о н/о -20.1 980.7 875.4 -22.2 -20.0
00 17.09 В 13 н/о н/о -20.3 980.7 875.4 -22.2 -19.8
03 17.09 ЮВ 13 н/о н/о -19.7 978.9 874.0 -22.2 -19.6
06 17.09 ЮВ 11 >70 км позёмок {метель} 10/10 300 м
[Sc]
-20.2 978.8 873.7 -22.2
09 17.09 ЮВ 10 >70 км позёмок {метель} 10/10 300 м
[Sc]
-20.6 978.3 873.1 -22.2 -19.7
12 17.09 ЮВ 9 >70 км позёмок {метель} 10/10 300 м
[Sc]
-17.6 975.7 871.9 -22.2 -17.6
15 17.09 ЮВ 11 н/о н/о -17.7 975.4 871.6 -18.8 -16.9
18 17.09 ЮВ 14 >70 км позёмок {метель} 10/10 300 м
[Sc]
-15.7 974.3 871.4 -18.8 -15.4
21 17.09 Ю 4 н/о н/о -18.2 976.8 872.7 -18.8 -15.4
00 18.09 Ю 1 н/о н/о -17.0 975.9 872.3 -19.8 -15.4
03 18.09 З 1 н/о н/о -15.6 975.4 872.4 -19.8 -14.1
06 18.09 З 3 >70 км 9/9 300 м
[Sc]
-15.8 974.9 871.9 -19.8
09 18.09 В 4 >70 км 9/9 300 м
[Sc]
-17.8 975.4 871.6 -19.8 -14.7
12 18.09 СВ 2 >70 км 10/10 300 м
[Sc]
-16.2 975.3 872.1 -19.8 -14.1
15 18.09 СВ 5 н/о н/о -18.4 976.7 872.5 -18.7 -14.1
18 18.09 В 4 >70 км 10/10 300 м
[Sc]
-19.9 977.7 872.8 -20.1 -14.1
21 18.09 В 8 н/о н/о -21.7 977.9 872.3 -22.0 -14.1
00 19.09 В 9 н/о н/о -20.3 977.8 872.8 -22.0 -14.1
03 19.09 В 9 н/о н/о -19.7 978.6 873.7 -22.0 -14.1
06 19.09 В 9 >70 км 8/8 300 м
[Sc]
-19.3 979.4 874.6 -22.0
09 19.09 В 7 >70 км {метель} 8/6 300 м
[Sc Ac As]
-20.4 981.8 876.3 -22.0 -19.6
12 19.09 ЮВ 10 >70 км позёмок {метель} 8/5 300 м
[Sc Ac As]
-19.6 982.1 876.9 -22.0 -19.5
15 19.09 ЮВ 9 н/о н/о -20.5 984.3 878.5 -20.6 -19.3
18 19.09 ЮВ 6 >70 км 10/10 300 м
[Sc]
-19.4 986.3 880.7 -20.9 -17.8
21 19.09 ЮВ 2 н/о н/о -16.6 985.7 881.3 -20.9 -15.3
00 20.09 Ю 3 н/о н/о -17.4 985.4 880.7 -20.9 -15.3
03 20.09 ЮВ 11 н/о н/о -22.0 986.1 879.5 -22.5 -15.3
06 20.09 ЮВ 9 >70 км 8/8 300 м
[Sc Ac As]
-21.4 984.8 878.6 -23.5
09 20.09 ЮВ 11 >70 км 6/4 300 м
[Sc Ac As]
-21.6 983.3 877.2 -23.5 -19.5
12 20.09 ЮВ 11 >70 км позёмок {метель} 4/3 300 м
[Sc Ac As]
-19.9 981.2 876.0 -23.5 -19.2
15 20.09 ЮВ 12 н/о н/о -19.2 980.0 875.2 -20.3 -18.9
18 20.09 ЮВ 14 >70 км позёмок {метель} 3/3 300 м
[Sc]
-20.1 978.1 873.1 -20.5 -18.9
21 20.09 ЮВ 13 н/о н/о -20.2 975.4 870.7 -21.4 -16.7
00 21.09 ЮВ 12 н/о н/о -21.2 974.9 869.8 -21.5 -16.7
03 21.09 В 8 н/о н/о -20.0 974.7 870.1 -21.5 -16.7
06 21.09 В 10 >70 км позёмок {метель} 9/9 300 м
[Sc]
-19.2 975.1 870.8 -21.5
09 21.09 В 4 >70 км 6/5 300 м
[Sc Ac As]
-15.6 975.1 872.2 -21.5 -15.0
12 21.09 ЮВ 11 >70 км позёмок {метель} 5/5 300 м
[Sc]
-15.4 976.1 873.1 -21.5 -11.6
15 21.09 В 14 н/о н/о -14.4 975.2 872.7 -16.4 -11.6
18 21.09 ЮВ 14 <100 м снег 10/0 300 м
[As op]
-14.6 977.4 874.6 -16.4 -11.6
21 21.09 В 12 н/о н/о -13.6 977.8 875.3 -16.4 -11.6
00 22.09 В 15 н/о н/о -13.5 979.1 876.5 -16.4 -11.6
03 22.09 В 15 н/о н/о -12.7 980.6 878.2 -16.4 -11.6
06 22.09 В 10 <100 м снег 10/0 300 м
[As op]
-13.5 983.8 880.7 -16.4
09 22.09 ЮВ 7 н/о н/о -13.2 985.7 882.5 -16.4 -12.8

 

Местоположение метеостанции SANAE (Антарктида): широта -71.70 долгота -2.80 высота над уровнем моря 817 м.

В архиве по умолчанию представлена погода в SANAE за последнюю неделю. Архивные данные за месяц целиком и за предыдущие месяцы, начиная с января 2011 года, Вы можете получить, выбрав интересующий диапазон дат из раскрывающегося списка и нажав кнопку "Ввод!".


*Определитесь, кто Вы:
робот инопланетянин человек

Внимание! Время в таблицах - всемирное. Для получения местного времени необходимо прибавить поправку, которая в SANAE равна 0 ч.

Смотрите также архив погоды в соседних городах и на ближайших метеорологических станциях:

Погода в Troll (Антарктида) (183 км)
Погода в Neumayer Station (Антарктида) (227 км)
Погода в Soerasen (Антарктида) (257 км)
Погода в Kohnen Ep9 (Антарктида) (378 км)
Погода в Nordenskiold Base (Антарктида) (386 км)
Погода в Maitri (Антарктида) (530 км)
Погода в Novolazarevskaja (Антарктида) (532 км)
Погода в Halley (Антарктида) (851 км)
Погода в Base Belgrano Ii (Антарктида) (1130 км)
Погода в Relay Station (Антарктида) (1487 км)

Пояснения к столбцам:

Ветер - указаны скорость ветра в м/с - средняя за 10 мин, порывы в срок и между сроками (в фигурных скобках) и направление, откуда дует ветер: С - северный, СВ - северо-восточный, В - восточный, ЮВ - юго-восточный, Ю - южный, ЮЗ - юго-западный, З - западный, СЗ - северо-западный.
Видимость - горизонтальная дальность видимости в метрах или километрах. При видимости от 1 до 10 км при отсутствии осадков обычно наблюдается дымка, при ухудшении видимости до 1 км и менее - туман. В сухую погоду видимость может ухудшаться дымом, пылью или мглою.
Явления - указаны атмосферные явления, наблюдавшиеся в срок или в последний час перед сроком; фигурными скобками обозначены явления, наблюдавшиеся между сроками (за 1-3 часа до срока); квадратными скобками обозначены град или гололедные отложения с указанием их диаметра в мм.
Облачность - указаны через наклонную черту общая и нижняя облачность в баллах и высота нижней границы облаков в метрах; квадратными скобками обозначены формы облаков: Ci - перистые, Cs - перисто-слоистые, Cc - перисто-кучевые, Ac - высококучевые, As - высокослоистые, Sc - слоисто-кучевые, Ns - слоисто-дождевые, Cu - кучевые, Cb - кучево-дождевые. Подробнее классификацию облаков см. в Атласе облаков (PDF).
T - Температура воздуха - температура, измеренная на высоте 2 м над землей.
Td - Температура точки росы - температура, при понижении до которой содержащийся в воздухе водяной пар достигнет насыщения.
f - Относительная влажность воздуха - влажноcть воздуха, измеренная на высоте 2 м над землей.
Te - Эффективная температура - температура, которую ощущает одетый по сезону человек в тени. Характеристика душности погоды. При расчете учитывается влияние влажности воздуха и скорости ветра на теплоощущения человека.
Tes - Эффективная температура на солнце - температура, которую ощущает человек, с поправкой на солнечный нагрев. Характеристика знойности погоды. Зависит от высоты солнца над горизонтом, облачности и скорости ветра. Ночью, в пасмурную погоду, а также при ветре 12 м/с и более поправка равна нулю.
P - Атмосферное давление - приведенное к уровню моря атмосферное давление.
Po - Атмосферное давление - измеренное на уровне метеостанции атмосферное давление.
Tmin - Минимальная температура - минимум температуры воздуха на высоте 2 м над землей.
Tmax - Максимальная температура - максимум температуры воздуха на высоте 2 м над землей.
R - Количество осадков - Количество выпавших осадков за период времени, мм. При наведении курсора мыши на число - период времени, за который выпало указанное количество осадков.
R24 - Количество осадков - Количество выпавших осадков за 24 часа, мм.
S - Снежный покров - Высота снежного покрова, см. При наведении курсора мыши на число - состояние снежного покрова и степень покрытия местности в баллах.